Wind_Speed
14 12 12 12 12 12 12 13 13 13 14 14 14 13 13 13 13 13 12 12 12 12 12 12 12 12 11 11 10 9 9 10 10 10 10 11 11 12 12 12 12 11 11 11 11 11 10 9 8 8 7 7 7 8 9 9 9 11 11 10 10 11 12 14 15 15 15 16 16 17 18 18 18 19 20 21 21 22 22 23 23 24 25 26 27
17 15 14 13 13 13 13 13 13 13 13 14 14 14 14 14 13 13 13 13 14 14 13 13 13 12 12 11 11 10 9 9 9 10 11 11 12 11 12 12 12 12 12 12 11 10 9 9 9 8 8 8 8 9 10 11 11 12 12 12 11 12 13 14 15 16 16 17 18 19 20 20 20 20 22 23 23 23 23 23 24 25 27 28 29
17 17 16 16 15 14 14 14 13 13 13 14 14 14 14 14 14 14 14 14 15 15 15 15 14 14 13 13 12 11 11 11 11 11 11 11 11 11 12 12 12 12 12 12 11 10 9 10 11 10 10 10 10 11 12 13 14 14 14 14 14 15 15 16 17 17 18 19 20 20 21 22 22 21 22 24 24 23 24 25 26 27 28 29 30
18 18 18 18 18 17 16 15 14 14 14 14 15 15 15 15 15 14 15 15 16 16 16 16 16 15 15 14 14 13 13 13 13 12 12 11 11 12 12 12 12 12 12 12 11 10 11 12 12 12 12 11 12 12 13 14 15 15 16 16 17 17 18 18 18 19 20 22 22 22 23 24 23 23 23 24 24 25 26 27 28 28 29 30 31
20 20 19 19 19 19 18 17 16 16 16 16 16 16 16 16 16 16 16 16 16 16 16 16 16 15 15 15 15 15 15 15 15 14 13 13 13 14 14 14 13 13 13 12 12 13 13 12 12 12 12 13 13 13 14 14 15 17 18 18 18 18 19 20 20 20 21 23 23 24 25 26 25 25 24 25 25 27 28 29 30 30 31 32 32
23 23 23 21 20 20 20 19 19 19 19 18 18 18 17 17 17 17 17 17 16 16 16 16 16 16 16 16 17 17 17 16 16 15 15 15 15 15 15 15 14 14 14 13 13 14 14 13 13 14 14 14 14 14 14 15 16 17 18 19 19 20 20 21 22 23 23 24 25 25 25 27 28 27 27 27 28 29 30 32 33 33 33 33 33
27 26 25 22 19 19 20 20 21 21 21 21 20 19 19 18 19 19 18 18 17 17 18 18 17 18 18 18 18 18 17 17 16 16 15 15 15 16 16 16 16 16 16 15 15 15 15 15 15 16 16 16 16 16 16 16 17 18 19 20 21 22 22 24 25 25 26 26 27 26 26 28 30 30 29 29 30 31 32 34 35 35 34 34 32
27 24 24 22 19 19 20 20 21 22 22 22 21 21 21 20 21 20 20 19 18 19 20 19 18 19 19 19 19 18 18 18 17 17 16 16 16 17 17 17 17 17 17 17 16 16 17 17 17 17 17 18 18 19 19 18 19 20 21 22 23 24 25 26 27 28 28 29 29 29 29 30 31 31 31 31 32 32 33 34 35 35 34 32 30
23 22 23 24 25 24 23 23 22 22 22 22 22 22 23 23 23 22 21 21 20 20 21 21 21 21 21 21 21 20 20 20 19 18 18 18 18 18 18 19 19 19 19 19 19 18 19 19 19 19 19 20 21 21 21 21 21 22 23 24 25 26 26 28 29 30 31 31 31 31 31 32 32 32 32 32 32 33 33 32 32 31 30 29 28
19 20 22 26 29 29 26 25 24 24 23 23 23 23 25 25 25 24 23 22 22 22 22 22 22 21 21 22 22 22 22 22 21 20 20 20 20 20 20 21 21 21 21 21 21 21 21 21 21 22 22 23 23 23 23 23 23 24 25 26 27 27 28 30 31 32 33 33 33 33 33 33 33 33 32 32 31 31 30 29 28 27 27 26 26
20 20 21 24 28 28 27 27 27 27 26 26 25 25 26 26 25 24 24 24 23 24 24 23 22 22 22 23 24 24 24 23 23 22 21 22 22 22 22 22 22 22 22 22 22 22 22 22 23 23 24 24 24 24 24 24 25 25 26 27 27 28 30 31 33 34 34 35 34 34 34 34 34 34 33 31 30 28 26 25 25 25 26 26 26
25 23 23 23 24 25 26 28 30 31 30 29 28 28 27 25 25 25 25 25 26 26 26 24 23 23 23 23 24 24 24 24 24 23 23 23 24 24 24 23 23 22 22 23 23 24 24 24 24 24 25 25 24 24 25 26 26 27 28 28 29 30 32 33 34 35 35 35 35 35 35 35 34 34 32 30 28 26 24 24 25 26 27 28 29
30 28 26 25 25 26 28 30 32 34 33 31 30 31 29 26 26 27 27 28 28 28 28 27 26 26 25 25 25 26 26 26 26 26 26 26 26 26 26 25 25 24 24 25 25 25 26 26 26 26 26 25 25 26 26 27 27 28 29 30 31 32 33 34 34 34 33 33 33 33 33 33 33 32 31 29 26 25 24 24 25 26 27 29 30
32 30 29 28 28 28 29 31 33 33 33 33 32 33 32 31 30 30 30 30 29 29 30 29 29 29 28 28 28 29 30 30 29 29 29 29 28 28 28 28 27 27 27 27 27 27 28 28 28 27 27 27 27 27 27 28 28 29 31 32 32 33 33 33 32 31 30 30 30 30 31 31 30 29 27 26 25 25 25 25 25 26 27 28 29
28 28 27 28 28 29 31 34 34 32 33 34 35 35 35 34 33 32 31 31 30 30 30 31 31 31 31 30 30 31 32 33 32 31 31 30 30 30 30 30 30 30 30 29 29 29 29 29 29 28 28 28 28 29 29 30 31 31 32 33 32 32 33 33 31 29 28 28 28 28 28 27 26 25 25 26 26 26 26 25 25 25 26 26 26
26 26 28 29 29 30 32 34 34 31 32 33 34 35 36 36 35 34 33 32 31 31 31 32 32 32 32 32 32 32 32 33 34 34 33 32 32 31 31 32 33 33 32 31 30 30 30 30 30 30 30 30 31 32 32 33 33 34 35 35 34 33 33 32 30 29 28 28 27 26 24 24 24 24 25 26 27 27 26 26 25 24 23 23 23
25 26 28 31 31 31 31 31 31 29 28 27 29 31 34 35 35 35 34 33 32 32 32 33 34 34 34 34 34 34 35 34 34 35 35 35 34 32 32 32 33 33 32 32 31 30 30 31 31 33 33 33 34 34 35 36 37 38 38 37 36 34 32 31 30 29 28 26 24 23 22 23 24 25 26 26 26 26 25 24 22 21 21 22 23
23 25 26 28 29 29 28 28 28 26 24 24 25 25 25 28 31 33 34 35 35 33 33 34 36 36 35 35 36 37 38 38 38 38 38 37 36 34 33 34 34 34 33 32 31 31 32 33 34 35 34 34 35 36 38 39 39 38 38 37 35 33 32 31 29 27 24 22 21 21 22 23 24 25 25 25 25 24 22 21 20 21 22 23 24
21 22 23 25 27 27 27 26 26 25 24 23 23 21 20 22 26 28 32 34 35 34 33 35 37 37 37 38 38 38 39 40 40 42 42 41 38 36 36 36 37 37 35 34 34 35 34 34 33 33 33 36 37 39 39 37 35 36 36 36 35 33 32 29 25 21 19 19 20 21 22 23 23 24 24 23 22 21 20 20 21 23 24 24 24
19 19 20 22 25 28 29 28 27 27 26 25 24 24 24 24 24 26 29 31 32 32 31 34 38 40 40 40 38 37 39 42 44 46 47 45 42 39 37 39 39 38 38 37 37 36 34 32 33 34 36 38 37 36 36 34 33 34 35 35 34 31 27 23 19 17 18 19 20 21 21 22 23 23 22 20 19 20 21 22 23 23 23 23 23
15 16 16 17 19 23 26 28 29 29 28 27 26 25 25 25 25 27 28 29 30 31 30 31 35 38 39 39 36 35 37 40 43 46 48 48 44 38 35 38 39 37 37 37 36 36 35 35 36 38 37 35 32 31 30 30 31 31 31 30 27 23 19 17 17 17 19 20 20 21 21 21 21 20 19 19 19 21 22 23 23 23 22 23 24
15 15 16 16 17 19 21 23 25 28 28 28 26 25 25 24 24 27 28 28 28 29 28 28 30 31 33 34 32 31 33 35 39 42 44 43 41 37 35 37 37 34 34 35 36 36 36 36 36 36 35 32 30 28 27 27 25 24 22 20 18 16 15 16 16 18 18 19 20 20 19 18 18 18 19 20 21 22 23 23 23 22 22 23 24
18 17 17 16 17 18 20 21 22 24 26 26 26 25 24 23 23 24 24 24 24 24 24 25 25 26 29 31 31 30 29 30 34 36 36 37 37 37 37 36 34 34 35 36 36 35 35 36 36 35 34 31 27 25 23 21 19 17 16 16 15 15 15 15 16 17 18 18 18 18 17 16 18 19 21 22 23 23 23 23 22 22 22 23 25
18 18 17 17 17 18 21 22 23 22 22 23 23 23 22 21 22 23 23 22 21 21 22 23 25 29 32 32 32 34 34 33 35 35 34 33 32 32 32 33 34 36 37 35 34 33 33 32 31 28 26 23 20 19 17 16 15 15 15 15 15 15 15 16 17 17 17 16 16 15 16 18 20 21 22 23 23 23 23 23 23 23 23 25 26
17 18 18 17 17 18 21 24 25 24 22 21 20 20 19 18 19 20 21 21 22 21 22 26 33 40 45 42 36 36 37 33 29 28 26 25 26 28 31 34 36 37 37 34 32 30 27 24 22 20 18 17 16 16 16 15 15 15 15 15 16 16 16 17 17 17 15 14 14 15 18 20 22 23 24 24 23 23 22 23 24 24 25 26 28
18 18 17 16 16 17 19 22 26 27 26 23 21 20 20 18 16 17 17 18 21 21 23 28 31 34 42 48 41 33 29 23 19 20 22 24 27 30 33 33 32 31 30 28 25 23 21 19 18 16 15 15 16 16 15 15 15 16 16 17 16 17 17 17 16 15 14 14 16 18 20 22 23 24 24 24 24 23 23 24 25 26 27 28 30
18 17 17 16 16 17 18 19 22 25 28 28 27 24 22 19 18 18 17 17 19 20 22 27 28 24 29 38 35 24 19 17 14 16 19 21 22 22 23 22 21 21 21 20 19 19 18 17 16 15 15 15 16 16 16 16 17 17 17 17 17 17 16 15 14 13 14 16 18 19 20 22 23 24 24 24 24 25 25 26 28 29 29 30 32
16 17 17 17 16 16 17 17 18 20 23 27 29 29 27 24 21 20 19 19 20 21 21 26 30 30 30 32 27 21 20 15 10 10 12 12 13 14 16 17 18 18 18 18 18 17 16 15 15 15 16 17 17 17 17 18 18 18 17 17 17 16 14 13 13 14 16 18 20 20 21 22 23 23 24 24 25 26 26 28 29 30 31 32 34
15 16 17 16 15 15 15 14 14 16 17 20 23 26 28 27 24 21 20 20 20 22 23 24 27 30 32 33 30 25 19 14 12 12 12 10 11 13 15 16 17 17 17 16 15 15 14 15 15 16 17 18 18 18 17 18 18 18 17 16 15 13 13 14 15 17 18 19 20 21 22 23 24 24 25 25 26 27 28 29 30 31 32 34 36
14 15 15 14 14 14 13 13 13 14 15 16 18 20 23 25 25 23 22 21 21 21 22 23 24 25 26 27 26 23 20 17 16 14 13 12 13 14 14 15 15 15 15 15 14 14 14 15 16 17 19 19 18 17 17 17 17 16 15 14 13 13 14 16 17 18 19 20 21 22 23 24 25 25 26 27 28 29 29 30 31 32 34 35 37
14 14 13 13 13 13 14 13 13 13 14 14 14 16 17 19 22 22 22 21 21 21 20 20 22 22 22 22 22 22 21 19 17 15 13 13 13 13 13 14 14 15 15 15 14 14 15 16 18 19 19 19 18 17 17 16 15 15 14 13 13 14 16 17 19 20 20 21 22 23 24 25 26 26 27 28 29 30 31 32 33 34 35 37 39
15 14 14 14 14 14 15 15 15 14 14 13 13 13 13 14 15 17 18 19 20 19 18 18 19 20 20 20 20 20 20 19 17 16 14 14 13 13 14 14 15 15 15 15 15 16 17 18 19 19 18 17 18 18 17 15 14 14 13 13 15 16 17 18 20 21 21 22 23 24 25 26 27 27 28 29 30 31 32 33 34 35 36 38 41
16 15 15 15 15 15 16 16 17 16 15 14 13 13 12 12 12 13 14 16 18 18 18 18 18 19 19 20 20 20 19 17 16 15 14 14 14 15 15 15 16 16 16 17 17 18 19 19 18 17 16 17 18 17 16 15 14 13 13 14 16 17 18 19 21 22 22 23 24 25 26 27 27 28 29 29 30 31 33 34 35 36 38 40 42
17 16 16 16 16 16 16 16 17 18 17 15 14 14 14 14 14 14 14 16 17 18 19 19 19 19 19 19 19 18 17 16 15 15 15 15 15 15 16 16 16 17 18 18 19 19 19 18 17 16 17 17 17 16 14 14 14 13 14 16 17 19 20 20 21 22 23 24 25 26 27 27 28 28 29 30 31 32 33 34 35 37 39 42 43
18 18 18 17 17 17 17 16 16 18 18 17 16 17 17 17 18 18 18 18 18 18 19 19 19 19 19 18 18 18 17 17 16 16 16 16 16 16 16 17 17 18 18 18 18 18 18 17 17 17 18 18 17 16 15 16 16 16 16 17 19 20 21 21 21 22 24 25 26 27 27 28 28 29 29 30 31 33 34 35 36 39 41 43 44
18 18 18 18 18 18 17 16 16 17 18 19 19 19 19 19 20 20 20 20 20 20 20 20 20 20 19 19 19 19 18 18 17 17 17 16 16 16 17 17 18 18 18 18 18 18 17 17 17 18 19 19 18 17 17 17 18 17 18 18 19 20 21 22 22 23 25 25 26 27 28 28 29 29 30 31 32 33 34 35 38 40 42 43 44
19 19 19 18 18 18 18 18 18 18 19 20 21 22 21 21 20 20 20 20 20 20 20 20 20 20 20 20 20 19 19 18 17 17 17 17 17 17 17 17 17 17 17 17 17 17 17 17 18 19 20 20 19 18 17 17 18 18 19 19 20 21 22 22 23 24 25 26 26 27 28 29 29 30 31 31 32 33 34 36 39 41 43 43 44
19 19 19 18 19 19 20 20 20 20 21 21 22 22 22 22 21 21 21 21 21 21 21 21 21 21 21 20 20 19 18 18 17 17 17 17 16 16 17 17 17 17 17 16 16 17 17 18 19 20 20 19 18 18 18 18 19 20 20 20 21 22 22 23 24 25 26 26 27 28 29 30 30 30 31 32 33 34 36 38 40 42 43 44 45
19 18 19 19 19 19 20 20 20 20 20 21 21 21 22 22 22 21 21 20 19 20 20 21 21 21 21 20 19 19 18 18 17 17 17 17 16 16 17 17 17 17 16 16 17 18 18 18 19 19 19 19 19 19 19 20 21 21 22 22 22 23 23 23 24 26 27 27 28 29 30 31 31 31 31 32 33 35 37 39 41 42 43 44 45
19 19 19 19 18 18 19 19 19 19 19 20 20 20 20 20 20 19 19 18 18 18 19 19 20 21 20 20 19 19 18 18 18 18 17 17 16 16 17 18 18 17 16 16 18 18 17 17 19 20 20 20 20 21 21 22 23 24 24 24 24 24 25 25 26 27 28 28 29 30 30 31 31 31 31 32 34 36 38 40 42 42 43 44 45
21 20 20 19 19 18 18 18 18 18 18 19 19 19 18 18 18 18 18 18 18 19 19 20 21 21 21 20 20 19 19 19 19 18 18 18 17 17 18 19 18 18 17 18 18 18 17 17 20 22 22 22 23 23 24 25 25 25 25 25 25 25 26 27 27 28 29 29 29 30 30 30 30 31 32 33 35 37 39 41 42 42 43 44 45
22 21 20 20 19 19 19 18 18 18 18 18 18 18 18 17 18 18 19 19 19 20 20 21 21 21 21 20 20 20 20 20 19 19 19 19 18 18 19 19 19 19 19 19 19 17 17 19 22 23 23 23 25 25 26 27 26 25 25 25 26 27 28 28 28 28 29 29 29 30 30 31 31 31 32 34 36 38 40 41 42 42 43 44 45
22 22 21 20 20 20 20 19 18 18 18 18 18 18 18 18 18 18 18 18 19 19 20 20 20 20 20 20 20 20 21 21 21 21 20 20 20 19 19 20 20 20 21 21 19 18 19 21 23 24 23 24 25 26 26 27 27 26 26 26 28 28 29 28 28 29 29 29 30 30 31 31 31 32 33 34 36 39 40 41 42 43 44 44 45
24 23 22 22 21 21 21 21 20 19 18 18 18 18 18 18 18 18 18 18 19 19 20 20 20 20 20 20 21 21 21 21 21 21 21 21 20 20 20 21 21 22 22 22 20 20 21 23 24 25 25 25 26 26 26 27 27 28 28 28 29 29 29 29 29 29 30 30 30 30 31 31 32 33 34 35 37 39 40 41 42 43 43 44 45
24 24 23 23 22 22 22 22 22 21 20 19 19 19 20 19 19 19 19 19 19 19 20 20 20 20 20 21 21 21 21 21 21 21 21 21 21 21 21 21 22 23 23 23 21 21 23 24 25 26 27 27 27 28 28 28 28 28 29 30 30 30 29 29 29 29 30 30 30 31 31 32 32 33 34 35 37 39 40 41 42 43 43 44 45
24 24 25 24 24 24 24 24 23 22 21 21 21 21 21 21 21 21 21 21 21 21 20 20 20 21 21 21 21 21 21 21 21 21 21 21 21 21 22 22 23 24 24 23 22 23 24 25 26 28 28 28 28 29 29 29 29 29 31 31 31 30 30 29 30 30 30 31 31 31 32 32 33 33 34 36 37 39 40 41 42 43 43 43 44
24 24 25 25 25 25 25 25 25 24 23 23 23 23 23 22 22 22 23 23 23 22 22 21 21 22 22 22 22 21 21 21 21 21 21 21 21 22 22 22 24 25 25 23 22 23 25 27 28 29 29 29 30 30 31 31 30 30 31 32 31 30 30 30 30 30 31 32 32 32 32 33 33 34 34 35 37 38 40 41 42 42 43 43 44
26 25 25 25 26 26 26 26 26 26 25 25 24 24 24 23 23 23 23 24 24 24 24 23 23 22 23 23 22 22 21 21 21 21 21 21 22 22 23 23 24 25 25 24 23 24 26 28 29 29 30 30 31 31 32 31 30 30 31 32 31 30 30 30 31 31 32 32 32 32 33 33 33 34 34 35 36 38 39 40 41 42 42 43 44
28 27 26 26 26 26 26 26 27 27 27 27 26 26 25 24 24 23 24 24 24 24 25 25 24 24 23 23 23 23 22 22 22 22 22 22 23 23 24 24 24 24 25 25 25 25 27 28 29 29 29 30 31 32 32 30 29 29 30 31 31 31 31 31 31 31 32 32 32 33 33 33 34 34 35 35 36 37 39 40 41 41 42 43 44
29 29 29 28 28 28 28 27 28 28 28 28 28 28 28 27 27 26 25 25 25 25 26 26 26 26 25 24 24 24 24 24 24 23 23 23 23 23 24 24 24 24 25 26 26 26 26 27 28 28 29 30 31 32 31 30 28 28 30 30 30 31 31 31 31 31 32 32 32 33 33 33 34 35 35 35 36 37 38 39 40 41 42 42 43
30 31 31 30 30 30 30 29 29 29 29 29 29 30 30 30 30 29 28 28 27 27 27 28 28 27 26 26 26 26 25 25 25 24 24 23 23 23 23 24 24 24 25 25 26 26 26 27 28 29 29 30 31 32 31 29 29 29 30 30 31 31 31 31 31 32 32 32 33 33 33 34 34 35 35 35 36 37 38 39 40 41 41 42 43
Wind_Direction
223 220 220 219 220 226 227 226 225 226 225 222 220 219 220 221 220 218 218 215 214 217 217 215 213 212 211 209 208 211 215 217 215 215 214 215 219 223 225 226 225 226 227 228 229 232 234 238 246 253 253 253 255 262 270 274 271 269 271 276 281 286 291 295 300 303 302 301 301 304 306 308 310 309 308 309 310 310 311 311 312 313 313 313 312
228 224 225 224 222 223 226 228 227 226 228 228 225 223 222 222 222 221 219 216 213 214 216 215 213 212 212 208 204 205 211 218 218 218 218 220 223 227 230 233 234 233 232 231 233 237 240 244 253 260 263 264 262 263 269 273 273 274 275 278 281 286 292 298 301 301 299 298 298 299 300 302 302 303 304 305 307 309 311 312 313 313 312 311 310
232 228 227 228 227 226 225 226 228 226 225 227 226 225 225 224 223 223 222 220 217 214 215 216 213 212 210 208 205 202 204 211 216 220 223 226 230 233 234 236 238 238 237 236 238 240 243 249 256 261 263 264 265 267 270 273 276 279 280 281 282 285 291 296 299 299 297 296 295 296 297 298 299 302 303 304 306 308 310 311 311 311 310 309 308
230 226 226 228 228 228 226 224 225 227 226 225 226 226 225 225 224 223 223 223 223 221 218 217 216 214 211 208 208 207 206 208 211 217 223 229 234 237 238 239 240 242 244 242 243 248 254 258 260 262 265 267 269 270 272 275 278 280 282 282 282 284 287 291 294 295 294 294 295 298 300 301 302 303 303 303 305 307 308 309 309 309 308 307 307
230 226 225 226 227 227 227 225 222 224 225 225 225 225 225 225 224 224 224 224 226 225 223 220 219 219 218 216 214 212 211 212 212 214 220 225 231 237 241 244 245 248 249 245 245 255 264 268 267 266 270 274 276 276 275 275 277 279 282 283 284 285 287 290 292 293 294 296 299 302 303 303 304 304 303 303 304 305 306 307 306 306 306 306 306
232 229 226 223 222 225 225 225 223 223 223 224 224 225 225 225 225 225 226 226 226 224 224 224 223 224 224 224 223 218 215 216 217 219 224 228 232 237 241 244 247 249 251 250 252 259 264 266 269 272 275 278 281 281 279 278 279 282 283 285 287 288 290 292 294 295 296 299 300 302 303 301 301 302 302 302 303 304 305 304 304 304 304 304 304
234 231 231 228 225 228 228 227 226 224 223 224 225 226 227 227 227 227 227 227 226 224 224 224 225 228 228 228 229 226 221 220 221 222 227 231 235 239 242 243 245 248 251 253 254 258 261 263 266 270 274 278 282 284 283 284 286 287 287 289 290 291 292 294 295 296 297 297 298 299 298 296 297 300 301 301 301 302 302 302 302 303 303 303 303
241 236 238 239 237 239 240 238 236 232 227 225 226 228 230 230 230 230 228 228 226 225 228 228 227 229 230 230 231 231 229 229 228 228 231 233 236 241 245 247 249 251 252 253 254 256 259 262 265 268 272 277 280 282 283 285 287 288 288 289 290 290 291 293 294 295 295 295 296 296 295 295 296 298 299 299 300 300 300 300 300 300 300 300 300
246 240 241 240 237 238 240 241 241 240 236 232 229 230 231 231 232 232 232 231 229 228 229 230 230 231 233 234 234 234 235 236 235 235 236 236 237 240 244 248 252 255 256 256 256 257 259 262 265 269 273 275 277 279 281 285 287 288 288 289 289 290 291 293 294 295 295 295 295 295 295 295 295 296 298 299 300 299 299 299 298 296 296 297 298
248 244 244 241 239 240 242 241 240 240 240 239 236 234 234 234 234 234 234 234 233 233 233 231 231 231 233 236 238 239 240 242 242 243 244 244 244 244 245 248 252 256 258 259 260 261 263 265 268 271 273 275 276 278 280 282 283 284 285 287 288 290 292 293 295 295 295 295 295 295 295 295 296 296 298 298 298 298 297 296 294 293 293 295 296
245 243 244 241 241 246 249 248 245 242 241 240 238 237 236 236 237 237 238 239 239 240 240 237 234 232 232 236 239 241 243 245 246 246 246 248 249 248 248 250 252 255 258 261 263 265 266 267 269 272 274 275 277 280 282 283 283 283 284 285 287 290 292 293 293 293 292 292 292 293 293 294 295 296 297 297 297 296 294 293 293 293 294 294 294
242 240 239 239 242 248 252 251 247 245 243 242 241 240 237 238 240 239 239 240 241 243 243 242 239 237 236 235 237 240 242 245 246 246 246 247 249 249 249 250 253 256 258 259 261 264 266 267 268 270 272 275 278 281 283 284 285 286 287 288 289 290 291 292 292 292 291 291 291 291 291 292 293 294 294 294 293 292 293 293 294 295 296 297 297
244 239 236 238 243 248 251 251 248 246 245 244 244 244 239 237 239 240 239 240 240 242 244 244 243 242 241 239 240 242 242 243 244 245 247 250 251 252 253 254 255 256 257 259 260 262 264 265 266 268 271 273 275 277 280 282 285 287 288 287 287 288 289 290 290 290 290 290 290 289 289 289 290 290 290 289 289 290 292 294 295 296 298 299 301
244 241 238 239 243 244 245 247 247 249 249 245 242 242 239 236 236 238 239 241 242 243 245 246 246 245 245 244 245 247 249 249 247 246 248 252 254 256 257 258 259 259 259 259 260 261 263 265 267 268 270 272 273 275 277 280 283 285 285 285 284 285 286 286 286 286 287 287 287 286 286 285 285 285 285 285 287 289 290 292 293 295 297 298 299
250 250 247 246 246 244 242 243 247 251 252 246 238 236 238 239 239 238 239 241 243 244 246 248 249 250 250 248 247 249 253 256 257 256 254 253 255 258 261 262 262 262 262 262 262 262 264 266 268 269 271 273 274 276 278 281 283 284 283 283 282 281 281 281 280 281 281 281 281 281 280 280 280 280 281 283 285 286 287 289 292 294 296 297 297
248 250 251 250 249 247 246 248 253 255 253 250 244 239 241 244 244 242 243 243 244 245 246 248 250 251 252 253 252 251 252 255 259 261 261 259 258 259 261 263 264 264 263 264 265 266 268 270 271 272 273 275 277 278 279 281 282 283 283 282 279 276 275 275 274 275 276 275 274 273 274 275 276 277 279 282 284 285 288 291 294 296 297 297 297
249 248 249 249 249 248 248 251 254 254 252 251 249 244 244 246 247 247 249 250 251 251 249 248 248 249 251 253 255 256 256 257 258 260 262 262 261 261 260 260 263 264 265 265 266 268 271 272 274 275 276 277 277 277 278 280 281 282 282 280 275 269 267 267 267 269 269 268 267 268 270 272 275 277 280 282 284 288 291 293 294 295 294 295 296
258 254 251 250 249 248 249 252 254 253 248 246 245 243 243 247 249 251 253 253 254 254 253 251 249 248 251 253 255 257 258 260 261 262 261 260 260 261 260 260 261 264 266 266 267 269 272 273 274 276 278 278 279 279 280 282 281 279 276 273 269 263 261 260 260 261 262 264 266 269 271 274 276 278 280 283 286 289 290 291 292 294 296 298 300
259 258 256 254 253 251 251 256 259 259 256 252 251 250 248 250 255 257 256 254 252 253 256 256 251 248 251 255 257 259 262 264 265 264 261 259 257 258 259 260 263 265 267 267 270 274 275 274 272 273 275 276 278 279 279 277 274 271 270 268 263 259 256 255 255 257 261 265 268 270 273 275 277 280 283 285 286 288 290 293 296 299 301 303 305
256 255 255 254 253 252 253 258 263 265 265 264 263 260 257 257 260 261 259 257 255 254 255 256 252 248 249 255 260 264 267 267 267 266 263 259 256 256 259 261 261 263 265 267 270 272 272 270 270 272 273 274 275 277 275 272 268 267 266 262 257 253 252 252 255 259 263 266 268 271 274 278 280 282 283 284 287 291 295 297 299 300 302 303 304
256 255 255 253 252 253 255 258 262 265 267 267 265 262 260 259 257 253 252 253 255 255 253 252 251 247 247 254 261 264 266 267 265 264 263 261 257 256 259 260 259 261 264 265 266 268 268 267 269 272 273 273 274 273 269 265 262 262 260 257 254 253 253 254 257 261 264 267 271 274 277 280 280 280 281 285 291 294 296 297 298 298 300 302 302
257 260 260 256 253 253 254 256 258 261 262 262 261 259 259 260 256 250 247 246 250 254 253 252 252 250 250 254 257 259 262 262 258 257 258 259 257 253 250 252 257 261 263 265 265 264 264 265 267 270 271 270 268 262 257 255 255 257 257 256 256 255 256 258 261 264 268 272 275 277 278 278 278 281 285 290 293 294 294 294 294 296 299 302 303
256 260 263 259 254 252 252 252 253 255 258 260 259 258 257 257 255 253 249 244 245 251 253 252 253 252 252 253 251 249 250 246 243 246 249 248 248 247 246 249 256 261 264 265 265 264 265 267 269 269 267 262 257 252 251 252 253 253 255 256 258 259 261 264 266 268 271 274 276 276 275 276 282 287 290 292 293 293 292 291 293 297 301 305 307
254 254 258 258 256 253 251 249 247 247 251 254 254 254 253 252 252 251 249 245 245 247 249 253 256 254 252 249 243 237 234 232 233 238 243 243 244 248 250 253 258 261 263 265 266 266 268 268 266 261 255 251 249 248 249 249 250 251 254 256 259 262 264 265 267 269 271 272 271 272 277 282 287 289 290 290 290 289 290 292 297 302 306 309 311
254 251 252 255 256 253 251 248 245 243 243 245 245 245 245 246 248 247 245 245 243 240 240 247 254 255 253 250 244 234 230 232 235 237 240 243 246 250 252 254 257 260 263 266 267 266 262 256 250 246 244 243 245 246 246 247 249 251 253 255 258 260 262 265 268 269 268 266 268 275 283 286 288 288 288 288 287 288 291 296 301 305 309 312 313
253 250 249 251 255 256 254 252 249 245 243 242 242 242 241 242 244 242 240 240 239 236 236 240 246 250 245 238 233 230 228 231 239 239 236 237 240 245 251 254 256 259 262 263 260 254 248 243 241 239 239 240 242 244 246 249 251 253 255 257 260 262 264 265 264 262 262 268 275 282 285 286 287 288 289 289 290 292 297 301 304 307 310 312 313
250 248 248 250 254 256 257 257 255 251 247 245 244 246 247 247 246 244 242 239 236 237 239 238 239 242 234 224 220 228 246 255 252 241 234 233 235 241 248 251 250 251 250 247 244 241 240 238 235 233 235 240 243 245 247 250 252 254 256 258 260 261 261 259 257 260 268 276 281 283 284 285 286 288 289 292 294 297 300 304 306 308 310 312 314
248 246 248 250 253 258 260 261 259 257 253 249 247 248 252 254 254 251 249 245 239 239 241 239 238 240 241 238 242 259 275 275 257 234 231 233 234 237 242 244 242 240 238 236 235 234 233 231 230 232 238 241 244 246 249 251 253 255 256 259 259 257 253 253 258 268 275 280 282 284 286 288 288 289 290 292 294 297 301 304 305 307 309 312 314
244 242 244 247 253 259 260 259 258 258 258 255 251 249 251 254 258 258 255 251 247 245 244 244 242 241 245 253 265 276 281 279 269 262 262 256 246 244 246 245 242 238 234 231 230 230 231 233 235 238 242 245 247 249 249 251 253 253 253 252 249 247 251 260 269 276 280 283 285 287 290 292 292 293 293 293 294 296 300 302 304 306 310 313 314
238 238 239 243 249 254 254 252 252 253 253 252 251 248 248 250 254 257 257 255 253 250 246 245 246 246 248 256 266 275 281 280 275 269 263 255 248 246 244 241 240 237 235 233 234 236 238 239 240 242 245 248 249 247 246 248 250 249 245 242 243 251 262 272 278 282 284 286 289 292 294 295 295 295 294 294 294 296 299 303 306 308 311 313 315
234 236 238 240 241 244 246 244 243 245 246 246 246 245 245 245 247 250 254 255 254 253 251 250 251 253 256 261 268 273 277 277 274 268 262 256 250 244 240 239 240 240 241 243 243 243 242 241 241 243 247 250 250 247 244 242 240 239 240 244 254 265 273 279 284 286 288 290 293 295 296 297 298 297 296 295 295 298 302 305 307 309 312 314 316
235 235 237 238 237 237 239 240 239 241 243 245 246 247 248 247 246 245 248 251 252 250 249 250 252 256 260 265 269 270 271 270 268 266 262 256 250 245 245 246 246 247 248 247 244 241 239 238 240 243 246 250 250 249 245 236 228 230 241 254 265 274 281 286 289 291 292 295 297 298 300 301 301 299 298 297 298 301 304 307 308 310 313 314 316
236 235 235 236 235 234 236 240 242 242 241 242 248 252 253 252 252 249 246 246 248 247 248 250 254 258 260 263 264 264 264 263 262 261 259 256 254 252 251 251 251 250 248 245 242 241 240 241 242 242 242 244 246 246 243 237 234 240 254 266 276 283 288 291 291 292 294 297 299 300 301 301 300 299 298 298 299 302 305 307 309 311 313 315 316
236 235 234 235 236 237 239 242 241 238 236 237 244 251 253 252 251 249 247 246 247 249 253 256 258 258 258 259 259 260 260 261 261 261 259 258 257 256 254 252 249 247 246 245 245 245 244 244 242 239 238 239 239 238 239 244 251 261 270 278 284 288 290 291 292 293 296 298 300 301 301 301 301 301 300 300 302 304 307 309 310 312 314 315 317
238 237 237 238 239 241 242 242 237 232 231 235 243 248 250 250 250 247 245 245 247 249 251 253 255 256 257 259 260 261 262 262 262 261 259 258 257 255 252 249 248 247 247 248 247 247 246 244 240 236 233 231 229 229 236 246 254 262 271 279 286 289 291 293 294 295 297 299 300 301 303 304 304 304 303 303 304 306 308 310 312 313 315 316 317
241 240 240 242 242 242 240 238 234 232 234 240 246 248 248 250 252 251 249 247 248 249 251 252 253 254 257 259 260 260 261 261 261 260 259 258 255 252 250 250 250 250 249 248 248 247 245 241 236 232 228 226 225 228 236 247 256 265 273 282 289 292 294 295 295 297 299 301 302 304 306 306 307 306 304 304 305 307 309 311 313 314 315 316 317
242 241 241 242 242 241 239 237 237 239 241 244 246 247 247 247 249 252 253 253 253 253 253 252 252 253 255 258 260 261 261 261 261 261 261 258 254 252 252 253 252 251 250 249 247 244 240 235 232 229 227 227 230 235 244 254 264 272 280 287 292 294 295 296 297 298 301 303 304 306 308 308 307 305 304 304 307 309 311 312 313 314 315 317 318
245 245 247 248 247 244 243 243 244 245 245 245 245 245 245 244 246 250 253 255 256 257 257 255 255 256 258 262 264 265 265 265 264 263 262 259 256 253 253 253 252 252 251 249 245 241 236 232 231 231 232 234 239 247 256 264 272 279 284 290 293 294 295 296 297 300 303 306 308 309 309 308 306 304 304 306 309 311 312 312 314 315 317 318 321
253 253 254 254 253 251 249 249 248 247 246 244 244 244 244 244 247 251 253 255 257 258 258 257 258 259 262 265 267 267 267 266 265 263 260 258 255 253 254 255 255 254 251 247 244 241 237 235 235 237 240 244 251 258 265 271 276 281 285 289 292 294 295 297 300 304 308 309 309 308 308 306 305 304 305 308 310 311 313 314 316 317 319 321 324
254 255 255 254 254 253 251 250 249 248 246 245 244 245 246 247 248 250 252 255 258 259 258 259 260 262 264 266 267 268 268 266 264 262 259 257 254 253 254 256 257 256 252 246 244 243 242 240 241 243 246 250 256 262 267 271 276 281 285 289 294 298 300 302 305 307 308 308 307 306 306 306 305 304 306 309 311 313 315 316 318 319 320 323 326
253 253 253 253 252 250 250 249 249 248 247 247 246 246 248 249 250 252 253 255 256 258 259 261 262 264 266 267 267 267 265 264 263 261 260 257 254 253 255 257 258 257 253 250 248 248 247 246 246 248 250 253 257 262 267 272 277 283 289 294 298 301 302 302 303 304 304 305 306 306 306 305 304 304 306 309 312 314 316 318 319 320 321 325 329
254 253 253 253 252 251 249 247 246 246 246 247 247 248 249 250 251 253 254 255 257 258 259 260 261 262 263 264 264 264 263 262 262 261 260 259 256 255 256 257 257 256 256 255 255 255 254 252 251 251 252 255 259 264 270 275 279 285 291 296 298 298 298 298 300 301 303 305 306 306 305 305 305 305 307 309 312 315 317 319 320 321 323 327 331
254 255 254 253 252 252 251 248 246 245 246 247 248 249 249 250 251 252 254 255 257 258 259 260 261 262 262 262 262 261 261 261 261 260 260 260 258 258 258 258 257 257 258 259 260 261 259 258 258 258 258 260 264 269 273 277 282 287 291 293 294 294 294 296 299 302 304 306 306 306 305 305 305 305 306 309 312 315 318 320 321 322 325 329 334
255 255 255 254 253 253 252 251 250 248 247 247 248 249 249 250 250 252 254 255 257 258 260 261 261 261 261 261 260 259 259 259 260 259 259 258 257 257 257 257 257 257 258 260 261 261 261 262 263 264 264 265 267 270 273 277 281 285 288 290 291 292 294 297 300 302 304 305 305 305 305 304 304 305 306 308 311 315 318 321 321 323 327 332 336
257 257 257 256 256 255 253 252 250 248 245 244 244 246 247 248 250 252 253 255 257 259 260 262 262 262 261 260 260 259 259 258 257 256 256 256 256 256 256 256 256 257 258 259 260 261 262 263 264 266 267 268 269 271 274 277 281 284 286 288 290 293 296 297 300 302 303 304 304 304 304 305 305 305 306 307 310 315 319 321 322 325 330 334 337
254 256 256 256 255 255 254 254 252 249 246 243 242 243 245 247 250 253 255 257 258 259 260 261 261 261 261 261 261 260 260 258 257 255 254 254 254 254 254 255 255 256 257 259 260 262 263 264 265 266 267 269 271 273 275 278 281 284 286 288 291 293 295 297 299 300 302 303 303 304 305 306 307 307 307 308 311 315 319 321 323 327 331 335 337
252 252 253 254 255 255 255 255 254 253 250 247 245 245 246 248 250 252 255 257 259 259 259 259 259 260 260 261 261 261 260 259 257 256 254 253 253 253 254 254 255 257 258 259 259 261 262 264 265 266 268 269 271 273 276 279 282 285 286 288 290 293 294 295 297 299 301 303 304 305 305 307 308 308 308 309 312 316 319 322 325 329 332 335 337
254 251 251 252 254 255 255 256 256 255 254 253 251 249 250 250 251 252 253 255 257 258 258 258 259 259 260 261 261 261 261 260 258 256 255 254 253 253 253 253 254 257 259 259 259 259 260 262 264 266 268 271 273 275 277 279 282 284 286 288 290 292 293 294 296 299 302 304 305 305 306 307 308 308 309 310 312 316 319 323 327 330 333 335 337
255 255 253 252 252 254 255 256 257 257 257 257 256 255 254 253 253 253 253 254 256 257 258 258 259 259 260 261 262 262 261 259 257 256 255 254 253 252 252 253 255 257 258 259 259 260 261 264 267 269 271 273 275 277 278 279 281 283 285 287 289 290 291 293 295 299 303 304 304 304 306 307 308 308 309 310 313 316 320 325 328 330 332 335 337
255 257 257 255 254 253 253 254 256 257 258 259 259 259 258 258 257 256 256 255 255 256 257 259 259 260 261 261 262 261 260 259 257 256 255 254 253 253 253 254 255 256 257 259 260 261 263 266 270 272 274 276 277 277 278 280 282 283 284 285 287 288 289 292 296 300 303 304 304 304 306 307 308 309 310 311 313 317 321 325 328 330 332 334 336
258 258 257 257 256 255 254 253 254 255 257 258 259 260 261 262 261 260 259 257 256 256 256 258 259 261 262 262 262 262 261 260 260 259 258 257 256 255 256 256 257 257 258 260 261 263 265 268 270 272 274 276 277 278 279 281 283 283 283 284 285 287 290 293 297 301 303 303 304 305 306 307 308 310 310 311 312 316 321 325 328 330 332 334 336
Height
5893 5893 5894 5895 5896 5896 5897 5898 5898 5899 5900 5901 5901 5902 5903 5903 5904 5904 5905 5905 5905 5906 5907 5907 5908 5909 5910 5911 5912 5913 5914 5914 5915 5915 5915 5916 5916 5916 5917 5917 5917 5918 5919 5920 5920 5920 5920 5921 5921 5922 5922 5922 5922 5922 5922 5922 5922 5921 5921 5921 5920 5920 5919 5919 5919 5919 5919 5918 5917 5916 5915 5915 5914 5913 5911 5910 5910 5909 5907 5905 5904 5902 5900 5899 5897
5891 5891 5892 5893 5893 5894 5895 5896 5897 5898 5899 5899 5900 5901 5901 5902 5902 5903 5903 5904 5904 5905 5905 5906 5907 5907 5908 5909 5910 5911 5912 5913 5913 5914 5914 5915 5915 5916 5916 5916 5917 5918 5918 5919 5919 5919 5920 5920 5920 5920 5920 5920 5920 5920 5921 5921 5920 5920 5920 5920 5919 5918 5918 5917 5917 5917 5916 5915 5914 5913 5913 5912 5911 5910 5909 5907 5906 5905 5904 5903 5901 5900 5898 5896 5894
5888 5889 5890 5891 5891 5892 5893 5894 5895 5896 5897 5898 5898 5899 5900 5900 5901 5902 5902 5903 5903 5904 5904 5905 5905 5906 5907 5908 5909 5909 5910 5911 5912 5913 5914 5914 5915 5915 5915 5916 5916 5917 5917 5917 5918 5918 5919 5919 5918 5918 5918 5918 5918 5919 5919 5919 5919 5918 5918 5918 5917 5916 5916 5915 5914 5914 5913 5912 5911 5911 5910 5909 5908 5907 5906 5905 5903 5902 5901 5900 5899 5897 5895 5893 5891
5885 5886 5887 5888 5889 5890 5891 5892 5894 5894 5895 5896 5897 5897 5898 5899 5899 5900 5901 5902 5902 5903 5903 5904 5905 5905 5906 5906 5907 5908 5909 5910 5911 5912 5913 5913 5914 5914 5914 5915 5915 5916 5916 5917 5917 5917 5917 5917 5917 5917 5917 5917 5917 5917 5917 5917 5917 5917 5916 5916 5915 5914 5913 5912 5912 5911 5910 5909 5909 5908 5907 5906 5905 5905 5903 5902 5901 5899 5898 5897 5896 5894 5892 5890 5888
5882 5882 5883 5884 5886 5887 5888 5889 5891 5892 5893 5894 5894 5895 5896 5897 5897 5898 5899 5900 5901 5902 5902 5903 5904 5904 5905 5905 5906 5907 5907 5908 5909 5910 5911 5911 5912 5912 5913 5913 5914 5914 5915 5915 5916 5915 5915 5915 5915 5915 5915 5915 5915 5915 5915 5915 5915 5915 5914 5913 5912 5911 5911 5910 5910 5909 5908 5907 5906 5906 5904 5903 5902 5901 5900 5899 5897 5896 5895 5894 5892 5891 5889 5886 5885
5877 5878 5879 5881 5882 5884 5885 5886 5887 5889 5890 5891 5892 5893 5894 5895 5896 5896 5897 5898 5899 5900 5901 5902 5902 5903 5903 5904 5904 5905 5905 5906 5907 5908 5908 5909 5910 5910 5910 5911 5911 5912 5913 5913 5913 5913 5913 5913 5913 5913 5913 5913 5913 5913 5913 5912 5912 5912 5912 5911 5910 5909 5909 5908 5907 5907 5906 5905 5904 5903 5902 5900 5899 5898 5897 5895 5894 5892 5891 5889 5888 5887 5885 5883 5881
5874 5877 5879 5880 5881 5882 5883 5884 5884 5885 5887 5888 5890 5891 5892 5893 5894 5895 5895 5896 5897 5898 5899 5899 5900 5901 5902 5902 5902 5903 5904 5905 5905 5906 5906 5907 5908 5908 5908 5909 5909 5910 5910 5911 5911 5911 5911 5911 5911 5911 5910 5910 5910 5910 5910 5910 5910 5910 5909 5908 5907 5907 5906 5906 5905 5904 5903 5902 5901 5900 5899 5898 5896 5894 5893 5892 5891 5889 5888 5885 5884 5883 5881 5879 5877
5874 5879 5880 5882 5883 5882 5881 5882 5882 5883 5884 5886 5888 5889 5890 5891 5891 5892 5893 5894 5895 5896 5896 5897 5898 5899 5900 5900 5900 5901 5902 5903 5903 5904 5904 5905 5906 5906 5906 5907 5907 5907 5908 5908 5909 5909 5908 5908 5908 5908 5908 5908 5908 5907 5907 5907 5907 5907 5906 5905 5905 5904 5903 5903 5902 5901 5899 5898 5897 5896 5896 5894 5893 5891 5890 5889 5888 5886 5885 5883 5881 5879 5877 5875 5874
5875 5877 5878 5879 5878 5877 5877 5878 5880 5881 5882 5884 5885 5886 5887 5888 5889 5889 5890 5891 5892 5893 5894 5895 5896 5897 5898 5898 5898 5899 5900 5900 5901 5902 5902 5903 5903 5903 5904 5904 5904 5905 5905 5905 5906 5906 5906 5906 5905 5905 5905 5905 5904 5904 5904 5904 5904 5903 5903 5902 5901 5900 5900 5899 5898 5897 5896 5895 5894 5893 5892 5890 5889 5888 5887 5886 5884 5883 5881 5880 5878 5876 5874 5872 5870
5872 5873 5874 5874 5873 5873 5874 5875 5877 5878 5879 5881 5882 5883 5884 5885 5886 5887 5888 5889 5890 5891 5892 5893 5895 5896 5897 5897 5897 5897 5897 5898 5899 5900 5900 5900 5900 5900 5901 5901 5901 5902 5902 5903 5903 5903 5903 5903 5903 5902 5902 5902 5901 5901 5901 5901 5900 5900 5899 5899 5898 5897 5896 5895 5894 5893 5892 5891 5890 5889 5888 5887 5886 5885 5884 5882 5881 5879 5878 5876 5874 5872 5871 5869 5867
5867 5867 5869 5869 5869 5870 5872 5873 5873 5874 5875 5876 5878 5879 5880 5882 5884 5885 5886 5887 5887 5888 5889 5890 5892 5893 5894 5894 5894 5894 5895 5896 5897 5898 5898 5898 5898 5898 5898 5898 5898 5899 5899 5899 5899 5900 5900 5900 5900 5900 5899 5899 5899 5898 5898 5898 5897 5897 5896 5895 5894 5893 5892 5891 5890 5889 5888 5887 5886 5885 5884 5883 5882 5881 5880 5879 5878 5876 5874 5873 5871 5869 5867 5866 5864
5863 5864 5864 5865 5866 5867 5868 5868 5868 5868 5870 5872 5874 5875 5877 5879 5881 5883 5883 5884 5884 5885 5885 5887 5888 5889 5890 5891 5891 5891 5892 5893 5893 5894 5895 5895 5895 5895 5896 5895 5895 5895 5895 5896 5896 5896 5897 5897 5897 5897 5896 5896 5896 5895 5895 5894 5894 5893 5892 5891 5890 5889 5888 5887 5886 5885 5884 5883 5882 5881 5880 5879 5878 5877 5876 5875 5874 5873 5871 5869 5867 5865 5864 5862 5860
5858 5859 5861 5862 5862 5863 5863 5862 5862 5862 5865 5869 5871 5872 5874 5875 5877 5878 5879 5880 5880 5881 5882 5883 5885 5886 5887 5887 5888 5888 5888 5889 5889 5890 5891 5892 5892 5892 5893 5893 5893 5892 5892 5892 5892 5893 5893 5893 5893 5893 5893 5893 5892 5892 5891 5891 5890 5889 5888 5887 5886 5885 5884 5883 5882 5881 5880 5879 5878 5877 5876 5875 5875 5874 5873 5872 5871 5870 5868 5867 5865 5863 5861 5859 5856
5854 5855 5857 5858 5858 5858 5858 5857 5857 5858 5862 5865 5867 5868 5868 5870 5871 5873 5875 5876 5877 5877 5878 5879 5881 5882 5883 5884 5885 5885 5885 5885 5886 5887 5887 5888 5889 5889 5890 5890 5890 5890 5889 5889 5889 5889 5889 5889 5889 5889 5889 5889 5888 5888 5887 5887 5886 5885 5884 5883 5882 5881 5880 5879 5878 5877 5876 5875 5875 5874 5873 5872 5871 5870 5869 5869 5868 5867 5865 5864 5862 5861 5859 5857 5854
5854 5855 5857 5857 5857 5856 5854 5852 5853 5857 5859 5860 5862 5863 5863 5864 5866 5868 5870 5872 5873 5874 5875 5876 5877 5878 5879 5880 5881 5882 5882 5882 5883 5883 5884 5885 5885 5886 5886 5886 5886 5886 5886 5885 5885 5885 5885 5885 5885 5885 5885 5885 5884 5884 5883 5882 5882 5881 5880 5879 5878 5877 5876 5875 5874 5873 5872 5872 5871 5870 5869 5868 5868 5867 5866 5865 5864 5863 5862 5861 5860 5858 5857 5854 5851
5853 5854 5854 5854 5853 5853 5853 5851 5853 5856 5856 5855 5857 5860 5861 5862 5863 5865 5866 5867 5869 5870 5871 5872 5873 5874 5874 5875 5876 5877 5878 5879 5879 5880 5880 5881 5882 5882 5882 5882 5882 5882 5882 5881 5881 5881 5881 5881 5881 5880 5880 5880 5880 5880 5879 5878 5878 5877 5876 5875 5874 5872 5871 5870 5870 5869 5869 5868 5867 5866 5866 5865 5865 5864 5863 5862 5860 5859 5858 5857 5856 5855 5853 5851 5849
5850 5851 5851 5850 5849 5850 5851 5851 5852 5854 5854 5853 5855 5857 5858 5859 5860 5860 5861 5862 5864 5865 5867 5868 5868 5869 5870 5870 5871 5872 5873 5874 5875 5875 5875 5876 5877 5877 5878 5878 5878 5878 5877 5877 5877 5877 5877 5877 5877 5876 5876 5876 5876 5875 5875 5874 5873 5872 5871 5870 5869 5868 5866 5866 5865 5865 5865 5864 5864 5863 5863 5862 5862 5861 5860 5858 5857 5856 5855 5854 5853 5852 5850 5848 5847
5846 5847 5847 5847 5847 5848 5849 5850 5850 5851 5852 5852 5852 5854 5855 5855 5855 5855 5856 5857 5858 5860 5862 5863 5864 5864 5865 5866 5867 5867 5868 5869 5869 5870 5870 5870 5871 5872 5872 5872 5873 5873 5873 5873 5872 5872 5872 5872 5872 5872 5872 5871 5871 5870 5870 5869 5868 5867 5866 5865 5864 5863 5862 5861 5861 5860 5860 5860 5861 5860 5860 5859 5859 5858 5856 5855 5854 5853 5852 5851 5850 5849 5847 5845 5843
5842 5843 5843 5844 5844 5846 5847 5848 5848 5849 5849 5850 5851 5852 5853 5853 5853 5853 5853 5853 5854 5855 5857 5858 5859 5860 5861 5861 5862 5863 5863 5864 5865 5864 5864 5864 5865 5866 5867 5867 5867 5868 5868 5869 5868 5867 5868 5868 5868 5868 5867 5867 5866 5865 5864 5863 5862 5861 5860 5860 5859 5858 5857 5857 5857 5857 5857 5858 5858 5858 5857 5856 5856 5855 5853 5852 5851 5850 5849 5848 5847 5845 5843 5841 5839
5839 5839 5840 5840 5841 5842 5843 5844 5844 5845 5846 5848 5848 5849 5850 5851 5852 5852 5851 5851 5851 5852 5853 5854 5854 5855 5856 5857 5858 5859 5860 5860 5859 5858 5858 5858 5859 5861 5862 5862 5862 5862 5863 5863 5863 5863 5863 5863 5863 5863 5862 5861 5861 5860 5859 5858 5857 5856 5856 5855 5855 5854 5853 5854 5854 5855 5855 5855 5855 5855 5854 5854 5853 5852 5851 5850 5849 5848 5846 5845 5843 5842 5840 5838 5836
5837 5838 5838 5838 5838 5839 5839 5840 5841 5841 5843 5844 5845 5845 5846 5847 5848 5848 5848 5848 5848 5848 5850 5850 5851 5851 5852 5853 5855 5856 5855 5855 5854 5853 5852 5852 5854 5858 5859 5857 5857 5858 5858 5858 5859 5859 5859 5859 5858 5857 5857 5856 5856 5855 5854 5854 5853 5853 5852 5852 5852 5851 5851 5851 5852 5852 5853 5853 5853 5852 5852 5851 5850 5849 5848 5847 5846 5845 5843 5841 5840 5839 5838 5836 5834
5835 5835 5836 5836 5836 5836 5836 5837 5838 5838 5839 5840 5841 5842 5843 5843 5844 5844 5845 5846 5846 5845 5846 5847 5848 5849 5849 5849 5850 5851 5850 5850 5849 5847 5847 5848 5850 5853 5854 5852 5852 5854 5854 5854 5854 5855 5855 5855 5854 5853 5853 5852 5852 5851 5850 5850 5850 5849 5849 5849 5849 5849 5849 5849 5850 5850 5850 5850 5850 5849 5849 5848 5847 5846 5845 5844 5843 5841 5840 5838 5837 5836 5835 5833 5830
5831 5832 5832 5833 5833 5833 5834 5834 5835 5836 5836 5837 5838 5839 5840 5840 5840 5839 5840 5842 5844 5844 5844 5844 5845 5846 5846 5845 5845 5845 5845 5845 5844 5843 5843 5844 5845 5846 5848 5848 5850 5850 5850 5850 5850 5850 5851 5850 5850 5850 5849 5848 5848 5848 5847 5847 5847 5846 5846 5846 5846 5847 5847 5847 5848 5848 5848 5847 5847 5846 5846 5845 5843 5842 5841 5840 5839 5838 5836 5834 5834 5833 5831 5829 5826
5826 5827 5828 5829 5829 5829 5830 5831 5832 5833 5834 5834 5835 5835 5836 5837 5837 5837 5837 5839 5842 5843 5842 5842 5842 5841 5839 5838 5839 5839 5839 5839 5839 5838 5838 5839 5840 5842 5844 5846 5846 5846 5846 5846 5846 5846 5846 5846 5845 5845 5845 5845 5845 5845 5845 5844 5844 5844 5844 5844 5844 5845 5845 5845 5845 5845 5845 5845 5844 5843 5842 5841 5840 5839 5838 5837 5836 5834 5832 5831 5830 5828 5827 5824 5822
5822 5823 5824 5825 5825 5825 5826 5827 5828 5829 5831 5832 5833 5833 5833 5833 5834 5834 5835 5836 5839 5839 5839 5838 5837 5833 5830 5830 5833 5833 5832 5833 5833 5834 5835 5836 5838 5840 5841 5842 5842 5842 5842 5842 5842 5842 5841 5841 5841 5841 5842 5842 5842 5842 5842 5842 5842 5842 5842 5842 5843 5843 5843 5843 5842 5842 5842 5842 5841 5841 5840 5838 5837 5836 5834 5833 5832 5831 5829 5827 5825 5824 5822 5820 5817
5819 5820 5821 5821 5822 5822 5823 5823 5824 5825 5827 5828 5829 5830 5830 5831 5831 5831 5832 5833 5834 5835 5835 5834 5834 5832 5829 5828 5828 5828 5829 5830 5831 5832 5833 5834 5835 5836 5837 5838 5838 5839 5838 5838 5838 5838 5838 5838 5838 5838 5838 5839 5839 5839 5839 5839 5840 5840 5840 5840 5840 5840 5840 5840 5840 5840 5840 5839 5839 5838 5837 5835 5834 5832 5831 5829 5828 5827 5825 5823 5821 5819 5818 5815 5813
5817 5817 5818 5819 5819 5820 5820 5821 5821 5822 5823 5824 5825 5826 5827 5828 5828 5829 5829 5830 5830 5831 5832 5832 5833 5833 5832 5829 5827 5826 5827 5828 5828 5829 5830 5831 5832 5833 5834 5835 5835 5835 5835 5835 5835 5835 5835 5835 5836 5836 5836 5836 5836 5837 5837 5837 5838 5838 5838 5838 5838 5838 5838 5838 5837 5837 5837 5837 5836 5835 5834 5833 5831 5829 5827 5825 5824 5822 5821 5819 5817 5814 5813 5811 5808
5815 5815 5816 5817 5817 5817 5818 5818 5819 5819 5820 5821 5822 5823 5823 5824 5825 5826 5827 5828 5828 5828 5829 5829 5830 5831 5831 5829 5826 5825 5826 5826 5826 5827 5828 5828 5829 5831 5832 5832 5833 5832 5832 5832 5832 5832 5833 5833 5834 5834 5834 5834 5834 5834 5835 5835 5835 5836 5836 5836 5836 5836 5836 5836 5835 5835 5835 5834 5833 5832 5831 5830 5828 5826 5824 5823 5821 5819 5818 5816 5813 5811 5809 5807 5804
5813 5813 5814 5814 5815 5815 5816 5816 5817 5817 5818 5818 5819 5820 5821 5822 5823 5823 5824 5825 5825 5826 5826 5826 5826 5827 5827 5826 5824 5824 5824 5825 5825 5826 5826 5827 5828 5828 5829 5830 5830 5830 5830 5830 5830 5830 5831 5831 5831 5831 5831 5831 5832 5833 5833 5833 5833 5833 5834 5834 5833 5834 5834 5833 5833 5833 5832 5831 5830 5829 5828 5826 5825 5823 5821 5819 5817 5816 5814 5813 5810 5808 5805 5803 5800
5810 5811 5812 5813 5813 5814 5814 5815 5815 5815 5816 5817 5817 5818 5819 5819 5820 5821 5822 5822 5823 5823 5823 5824 5824 5824 5824 5824 5823 5823 5823 5823 5824 5824 5824 5825 5825 5826 5827 5827 5827 5828 5828 5828 5828 5828 5829 5829 5829 5828 5828 5829 5830 5831 5831 5831 5831 5831 5831 5831 5831 5832 5832 5831 5830 5830 5829 5828 5827 5825 5824 5823 5821 5820 5818 5816 5814 5812 5811 5809 5806 5804 5801 5799 5796
5808 5809 5810 5811 5812 5812 5812 5813 5814 5814 5814 5815 5815 5816 5816 5817 5818 5819 5820 5820 5820 5821 5821 5821 5822 5822 5822 5822 5822 5822 5822 5822 5822 5822 5822 5822 5823 5824 5824 5825 5825 5826 5826 5826 5827 5827 5827 5827 5826 5825 5826 5826 5828 5828 5828 5828 5829 5829 5829 5829 5829 5829 5829 5828 5827 5827 5826 5825 5823 5822 5820 5819 5818 5816 5814 5812 5810 5809 5807 5805 5802 5800 5797 5795 5792
5807 5808 5809 5809 5810 5810 5811 5812 5812 5812 5813 5813 5814 5814 5815 5815 5816 5817 5818 5818 5818 5819 5819 5820 5820 5820 5820 5821 5821 5821 5821 5821 5821 5821 5821 5821 5821 5822 5822 5823 5823 5824 5824 5824 5825 5824 5824 5824 5824 5824 5824 5824 5824 5825 5825 5826 5827 5827 5827 5827 5827 5826 5826 5825 5824 5823 5822 5821 5820 5818 5817 5816 5814 5813 5811 5809 5807 5805 5803 5800 5798 5796 5793 5790 5787
5805 5806 5806 5807 5808 5809 5809 5810 5811 5811 5811 5812 5813 5813 5813 5813 5814 5815 5815 5816 5816 5817 5818 5818 5819 5819 5819 5819 5819 5819 5819 5819 5819 5819 5820 5820 5820 5821 5821 5821 5822 5822 5822 5822 5822 5822 5822 5822 5822 5822 5822 5822 5822 5822 5822 5823 5824 5825 5825 5824 5824 5823 5823 5822 5821 5820 5819 5818 5817 5815 5814 5813 5811 5809 5807 5805 5803 5801 5799 5796 5794 5792 5789 5786 5783
5803 5804 5804 5805 5806 5806 5807 5808 5809 5809 5810 5811 5811 5812 5812 5812 5812 5813 5813 5814 5814 5815 5816 5816 5816 5817 5817 5817 5817 5817 5817 5817 5817 5818 5818 5818 5819 5819 5819 5820 5820 5820 5820 5819 5819 5819 5819 5820 5820 5820 5820 5820 5820 5820 5821 5821 5821 5822 5822 5822 5821 5820 5820 5819 5818 5817 5816 5815 5813 5812 5811 5809 5807 5805 5803 5801 5799 5797 5795 5792 5790 5787 5785 5782 5778
5801 5802 5802 5803 5804 5805 5805 5806 5807 5807 5808 5809 5810 5810 5810 5810 5810 5811 5811 5812 5812 5813 5813 5814 5814 5814 5814 5814 5815 5815 5815 5815 5815 5815 5816 5816 5816 5817 5817 5817 5817 5817 5817 5817 5817 5817 5817 5817 5818 5818 5818 5818 5819 5819 5820 5819 5819 5820 5820 5819 5819 5818 5817 5816 5815 5814 5813 5812 5810 5809 5807 5805 5803 5801 5799 5797 5795 5793 5791 5788 5786 5783 5780 5777 5773
5799 5800 5800 5801 5802 5802 5803 5804 5804 5805 5806 5807 5807 5807 5808 5808 5808 5808 5808 5809 5810 5810 5811 5811 5811 5812 5812 5812 5812 5812 5813 5813 5813 5813 5814 5814 5814 5814 5814 5814 5814 5814 5814 5814 5814 5814 5814 5815 5815 5816 5816 5816 5817 5818 5818 5818 5817 5817 5817 5817 5816 5815 5814 5813 5812 5811 5810 5808 5807 5805 5803 5801 5799 5797 5795 5793 5791 5789 5787 5784 5782 5779 5776 5773 5769
5797 5797 5798 5799 5799 5800 5800 5801 5802 5803 5804 5804 5804 5804 5805 5805 5805 5805 5805 5806 5806 5807 5807 5808 5809 5809 5809 5809 5810 5810 5810 5810 5811 5811 5811 5811 5811 5811 5811 5811 5811 5811 5811 5811 5812 5812 5812 5812 5813 5813 5814 5814 5815 5815 5815 5815 5815 5814 5814 5814 5813 5812 5811 5810 5809 5808 5806 5805 5803 5801 5799 5797 5795 5793 5791 5789 5787 5785 5783 5781 5778 5775 5772 5769 5765
5794 5795 5795 5796 5796 5797 5797 5798 5799 5800 5801 5801 5801 5801 5801 5802 5802 5802 5802 5803 5803 5804 5804 5805 5805 5806 5806 5807 5807 5807 5807 5808 5808 5808 5808 5808 5808 5808 5808 5808 5808 5808 5809 5809 5809 5810 5810 5810 5810 5811 5811 5812 5812 5812 5812 5812 5812 5811 5811 5811 5810 5809 5808 5807 5806 5804 5802 5800 5798 5797 5795 5793 5791 5790 5787 5785 5783 5781 5779 5777 5774 5771 5767 5764 5761
5792 5792 5793 5793 5794 5794 5795 5795 5796 5797 5797 5797 5797 5798 5798 5798 5799 5799 5799 5800 5800 5800 5801 5802 5802 5803 5803 5804 5804 5804 5804 5804 5804 5804 5805 5805 5805 5805 5805 5805 5805 5806 5806 5807 5807 5807 5807 5808 5808 5808 5808 5809 5809 5809 5809 5809 5808 5808 5808 5808 5807 5806 5805 5804 5802 5800 5798 5797 5794 5793 5791 5789 5787 5785 5783 5781 5780 5778 5775 5772 5769 5766 5763 5760 5756
5790 5790 5790 5791 5791 5792 5792 5792 5793 5794 5794 5794 5794 5795 5795 5795 5796 5796 5796 5797 5797 5797 5798 5799 5799 5800 5800 5800 5801 5801 5801 5801 5801 5801 5801 5802 5802 5802 5802 5802 5802 5803 5804 5804 5804 5804 5805 5806 5806 5805 5806 5806 5806 5806 5806 5806 5806 5805 5804 5804 5803 5802 5800 5799 5797 5796 5794 5793 5791 5789 5787 5786 5783 5782 5780 5778 5776 5774 5771 5768 5765 5762 5759 5756 5752
5787 5787 5787 5788 5788 5789 5789 5790 5790 5791 5791 5791 5791 5792 5792 5792 5793 5793 5793 5794 5794 5795 5795 5795 5796 5796 5797 5797 5797 5797 5797 5797 5798 5798 5798 5799 5799 5799 5799 5799 5799 5800 5801 5801 5801 5802 5803 5803 5803 5803 5804 5804 5804 5804 5803 5803 5802 5802 5801 5800 5799 5797 5796 5795 5794 5792 5791 5790 5788 5785 5783 5782 5780 5778 5776 5774 5772 5770 5767 5764 5762 5758 5755 5751 5747
5783 5784 5784 5785 5785 5786 5786 5787 5787 5788 5788 5788 5788 5788 5789 5789 5790 5790 5791 5791 5791 5791 5792 5792 5792 5793 5793 5794 5794 5794 5794 5794 5794 5795 5795 5795 5796 5796 5796 5796 5797 5797 5797 5797 5798 5799 5800 5800 5799 5800 5801 5801 5801 5800 5800 5799 5798 5798 5797 5796 5795 5794 5793 5792 5791 5789 5788 5786 5784 5782 5780 5778 5776 5774 5772 5770 5768 5766 5763 5761 5758 5754 5751 5747 5743
5780 5780 5781 5782 5782 5782 5783 5783 5784 5784 5784 5785 5785 5785 5786 5786 5787 5787 5788 5788 5788 5788 5788 5789 5789 5790 5790 5790 5790 5791 5791 5791 5791 5791 5792 5792 5793 5793 5793 5793 5794 5794 5794 5794 5795 5796 5796 5796 5795 5796 5797 5797 5796 5796 5796 5795 5794 5794 5794 5793 5792 5791 5790 5788 5787 5785 5784 5782 5780 5778 5776 5774 5772 5770 5769 5767 5764 5762 5760 5757 5753 5750 5747 5743 5738
5778 5778 5778 5779 5779 5779 5779 5780 5780 5781 5781 5781 5781 5782 5782 5783 5784 5784 5784 5785 5785 5785 5785 5786 5786 5786 5786 5787 5787 5787 5787 5787 5788 5788 5788 5789 5789 5790 5790 5790 5790 5790 5790 5791 5792 5793 5792 5792 5791 5791 5792 5792 5792 5792 5792 5792 5791 5790 5790 5789 5788 5787 5786 5784 5783 5781 5780 5778 5777 5775 5773 5771 5769 5767 5765 5763 5761 5758 5756 5753 5750 5746 5743 5738 5734
5775 5775 5776 5776 5776 5776 5776 5777 5777 5778 5778 5778 5778 5778 5779 5779 5780 5780 5781 5781 5782 5782 5782 5782 5782 5783 5783 5783 5783 5783 5784 5784 5784 5785 5785 5786 5786 5786 5787 5787 5787 5787 5787 5788 5789 5789 5789 5788 5787 5787 5788 5788 5788 5788 5788 5788 5788 5787 5786 5785 5784 5783 5781 5780 5778 5777 5776 5775 5773 5771 5769 5767 5765 5763 5761 5759 5757 5755 5752 5749 5746 5742 5738 5734 5730
5773 5772 5772 5773 5773 5773 5773 5773 5774 5775 5775 5775 5775 5775 5775 5776 5776 5777 5777 5777 5778 5778 5779 5779 5779 5779 5779 5779 5779 5780 5780 5781 5781 5781 5782 5782 5782 5783 5783 5784 5783 5783 5783 5785 5785 5785 5785 5784 5784 5784 5784 5784 5784 5784 5784 5784 5784 5783 5782 5780 5779 5778 5777 5776 5775 5774 5772 5771 5769 5767 5765 5763 5761 5759 5757 5755 5753 5750 5748 5745 5742 5738 5734 5730 5726
5769 5769 5769 5769 5769 5770 5770 5770 5770 5771 5772 5772 5772 5772 5772 5772 5772 5773 5773 5773 5773 5774 5775 5775 5775 5775 5775 5775 5775 5776 5776 5777 5777 5778 5778 5779 5779 5779 5780 5780 5780 5779 5780 5781 5782 5781 5781 5780 5780 5780 5780 5780 5780 5780 5779 5779 5779 5778 5777 5775 5775 5774 5773 5772 5771 5770 5768 5767 5765 5763 5761 5759 5757 5755 5753 5751 5749 5746 5744 5741 5738 5734 5730 5727 5723
5764 5765 5765 5765 5765 5765 5766 5766 5767 5767 5768 5768 5768 5768 5768 5768 5768 5769 5769 5769 5769 5770 5770 5771 5771 5771 5771 5771 5771 5772 5772 5773 5773 5774 5774 5775 5775 5776 5776 5776 5776 5776 5776 5777 5778 5778 5777 5776 5776 5776 5776 5776 5776 5775 5775 5775 5775 5774 5772 5771 5770 5770 5769 5768 5767 5766 5764 5762 5761 5759 5757 5755 5753 5751 5749 5747 5745 5742 5740 5737 5733 5730 5727 5724 5720
5758 5759 5760 5761 5761 5761 5762 5762 5762 5763 5763 5764 5764 5765 5765 5765 5765 5765 5765 5765 5765 5765 5765 5766 5766 5767 5767 5767 5767 5768 5768 5769 5769 5770 5770 5771 5771 5772 5772 5772 5773 5773 5773 5773 5774 5774 5773 5772 5772 5772 5772 5771 5771 5770 5770 5770 5771 5770 5768 5767 5767 5766 5765 5765 5763 5762 5760 5758 5756 5754 5753 5751 5749 5747 5745 5743 5741 5738 5736 5733 5730 5727 5724 5720 5717
5754 5754 5755 5756 5757 5757 5757 5758 5758 5758 5759 5759 5759 5760 5760 5761 5761 5761 5761 5761 5761 5761 5761 5761 5761 5762 5763 5763 5763 5763 5764 5764 5765 5765 5766 5767 5767 5767 5768 5768 5769 5769 5769 5769 5769 5769 5769 5768 5767 5767 5767 5767 5766 5765 5765 5766 5766 5766 5765 5764 5763 5763 5762 5761 5760 5758 5756 5755 5752 5750 5748 5747 5745 5743 5741 5739 5737 5734 5732 5729 5726 5723 5720 5717 5713
5748 5749 5750 5751 5751 5752 5752 5753 5753 5754 5754 5754 5755 5755 5755 5756 5757 5757 5757 5758 5758 5757 5757 5757 5757 5757 5758 5758 5758 5759 5759 5759 5760 5760 5761 5762 5762 5763 5763 5764 5764 5765 5764 5764 5764 5764 5764 5764 5763 5763 5762 5762 5761 5760 5760 5761 5762 5761 5761 5760 5760 5759 5758 5757 5755 5754 5752 5750 5748 5746 5744 5743 5741 5739 5737 5735 5733 5730 5728 5725 5722 5720 5717 5713 5710